Location: Coopersdale
(40.3556°N, 78.9372°W)
Time: 23:22:18
(UTC+00:00)

Tiros 1 - Pass Details

Date: 21 January 2021
Orbit: 630 x 664 km, 48.4° (Epoch: 06 March)

Event Time Altitude Azimuth Distance (km) Brightness Sun altitude
Rises 23:07:49 0° 214° (SW) 2,921 11.5 -9.0°
Reaches altitude 10° 23:10:15 10° 206° (SSW) 2,011 10.4 -9.5°
Maximum altitude 23:14:31 37° 139° (SE) 978 7.9 -10.3°
Enters shadow 23:17:54 15° 77° (ENE) 1,704 8.6 -10.9°
